• în Republica Moldova
  • Lista ţărilor
  • Pe 7 zile
  • Temperatura apei
  • Hartă satelitară
  • Meteo pe hartă
  • Widget-uri
  • user-avatar
    Intrare

    Meteo pe oră la Salzburg

    Astăzi, 23 Aprilie, Duminică

    Timp Temperatura Precipitaţii Vânt Presiune Umiditate
    00:00 -3°C° 1,2 mm 2 m/s 625 mmHg 97%
    01:00 -3°C° 0 mm 2 m/s 625 mmHg 97%
    02:00 -4°C° 0,9 mm 2 m/s 625 mmHg 97%
    03:00 -4°C° 0,9 mm 2 m/s 625 mmHg 97%
    04:00 -4°C° 0,9 mm 2 m/s 625 mmHg 97%
    05:00 -4°C° 0,7 mm 2 m/s 625 mmHg 97%
    06:00 -4°C° 0,7 mm 2 m/s 625 mmHg 96%
    07:00 -4°C° 0,7 mm 2 m/s 625 mmHg 95%
    08:00 -3°C° 0,4 mm 2 m/s 626 mmHg 93%
    09:00 -3°C° 0,4 mm 2 m/s 626 mmHg 91%
    10:00 -2°C° 0,4 mm 2 m/s 626 mmHg 89%
    11:00 -2°C° 0,2 mm 2 m/s 626 mmHg 87%
    12:00 -1°C° 0,2 mm 2 m/s 626 mmHg 86%
    13:00 -1°C° 0,2 mm 2 m/s 626 mmHg 85%
    14:00 -1°C° 0,1 mm 2 m/s 626 mmHg 85%
    15:00 -1°C° 0,1 mm 2 m/s 626 mmHg 85%
    16:00 -1°C° 0,1 mm 2 m/s 626 mmHg 85%
    17:00 -2°C° 0,1 mm 2 m/s 626 mmHg 88%
    18:00 -3°C° 0,1 mm 2 m/s 626 mmHg 91%
    19:00 -2°C° 0,1 mm 1 m/s 626 mmHg 94%
    20:00 -2°C° 0,1 mm 1 m/s 626 mmHg 94%
    21:00 -3°C° 0,1 mm 1 m/s 626 mmHg 95%
    22:00 -4°C° 0,1 mm 1 m/s 627 mmHg 95%
    23:00 -6°C° 0 mm 1 m/s 626 mmHg 95%

    Mâine, 24 Aprilie, Luni

    Timp Temperatura Precipitaţii Vânt Presiune Umiditate
    00:00 -7°C° 0 mm 1 m/s 626 mmHg 96%
    01:00 -8°C° 0 mm 1 m/s 625 mmHg 96%
    02:00 -9°C° 0 mm 1 m/s 624 mmHg 96%
    03:00 -9°C° 0 mm 1 m/s 624 mmHg 96%
    04:00 -10°C° 0 mm 1 m/s 623 mmHg 95%
    05:00 -7°C° 0 mm 1 m/s 624 mmHg 92%
    06:00 -4°C° 0 mm 1 m/s 625 mmHg 88%
    07:00 -2°C° 0 mm 1 m/s 626 mmHg 84%
    08:00 0°C° 0 mm 1 m/s 626 mmHg 83%
    09:00 +2°C° 0 mm 1 m/s 626 mmHg 82%
    10:00 +3°C° 0 mm 1 m/s 626 mmHg 80%
    11:00 +4°C° 0 mm 1 m/s 626 mmHg 79%
    12:00 +5°C° 0 mm 1 m/s 626 mmHg 78%
    13:00 +6°C° 0 mm 1 m/s 626 mmHg 77%
    14:00 +6°C° 0 mm 1 m/s 625 mmHg 78%
    15:00 +6°C° 0 mm 1 m/s 625 mmHg 79%
    16:00 +6°C° 0 mm 1 m/s 624 mmHg 80%
    17:00 +4°C° 0 mm 1 m/s 624 mmHg 85%
    18:00 +2°C° 0 mm 2 m/s 623 mmHg 90%
    19:00 -1°C° 0 mm 2 m/s 622 mmHg 95%
    20:00 -1°C° 0 mm 2 m/s 622 mmHg 95%
    21:00 -1°C° 0 mm 2 m/s 622 mmHg 95%
    22:00 -1°C° 0 mm 3 m/s 622 mmHg 95%
    23:00 -2°C° 0 mm 3 m/s 622 mmHg 95%

    Poimâine, 25 Aprilie, Marţi

    Timp Temperatura Precipitaţii Vânt Presiune Umiditate
    00:00 -2°C° 0 mm 3 m/s 622 mmHg 94%
    01:00 -2°C° 0 mm 3 m/s 621 mmHg 93%
    02:00 -2°C° 0 mm 3 m/s 621 mmHg 93%
    03:00 -2°C° 0 mm 3 m/s 620 mmHg 92%
    04:00 -2°C° 0 mm 3 m/s 620 mmHg 92%
    05:00 -2°C° 0 mm 2 m/s 620 mmHg 91%
    06:00 -1°C° 0 mm 2 m/s 620 mmHg 90%
    07:00 +1°C° 0 mm 2 m/s 620 mmHg 90%
    08:00 +2°C° 0 mm 2 m/s 620 mmHg 87%
    09:00 +3°C° 0 mm 2 m/s 621 mmHg 83%
    10:00 +6°C° 0 mm 1 m/s 621 mmHg 80%
    11:00 +6°C° 0,1 mm 1 m/s 621 mmHg 79%
    12:00 +6°C° 0,1 mm 2 m/s 620 mmHg 78%
    13:00 +7°C° 0,1 mm 2 m/s 620 mmHg 77%
    14:00 +6°C° 0,6 mm 2 m/s 620 mmHg 81%
    15:00 +5°C° 0,6 mm 2 m/s 619 mmHg 85%
    16:00 +5°C° 0,6 mm 2 m/s 619 mmHg 90%
    17:00 +4°C° 1,6 mm 2 m/s 619 mmHg 93%
    18:00 +3°C° 1,6 mm 2 m/s 619 mmHg 96%
    19:00 +1°C° 1,6 mm 2 m/s 619 mmHg 98%
    20:00 +1°C° 1,6 mm 2 m/s 619 mmHg 98%
    21:00 +1°C° 1,6 mm 2 m/s 619 mmHg 98%
    22:00 -1°C° 1,6 mm 2 m/s 620 mmHg 98%
    23:00 -1°C° 1,3 mm 2 m/s 619 mmHg 98%

    26 Aprilie, Miercuri

    Timp Temperatura Precipitaţii Vânt Presiune Umiditate
    00:00 -1°C° 1,3 mm 2 m/s 619 mmHg 98%
    01:00 -2°C° 1,3 mm 2 m/s 619 mmHg 98%
    02:00 -2°C° 1 mm 2 m/s 619 mmHg 98%
    03:00 -3°C° 1 mm 2 m/s 618 mmHg 98%
    04:00 -3°C° 1 mm 2 m/s 618 mmHg 98%
    05:00 -3°C° 0,9 mm 2 m/s 618 mmHg 98%
    06:00 -3°C° 0,9 mm 2 m/s 618 mmHg 98%
    07:00 -3°C° 0,9 mm 2 m/s 618 mmHg 98%
    08:00 -3°C° 1,2 mm 2 m/s 618 mmHg 98%
    09:00 -3°C° 1,2 mm 2 m/s 618 mmHg 98%
    10:00 -3°C° 1,2 mm 2 m/s 618 mmHg 98%
    11:00 -3°C° 1,7 mm 2 m/s 618 mmHg 98%
    12:00 -3°C° 1,7 mm 2 m/s 618 mmHg 98%
    13:00 -3°C° 1,7 mm 2 m/s 618 mmHg 98%
    14:00 -3°C° 1,9 mm 2 m/s 618 mmHg 98%
    15:00 -3°C° 1,9 mm 2 m/s 618 mmHg 98%
    16:00 -4°C° 1,9 mm 2 m/s 618 mmHg 98%
    17:00 -4°C° 1,4 mm 2 m/s 618 mmHg 98%
    18:00 -3°C° 1,4 mm 1 m/s 618 mmHg 98%
    19:00 -3°C° 1,4 mm 1 m/s 618 mmHg 98%
    20:00 -4°C° 0,5 mm 1 m/s 618 mmHg 98%
    21:00 -4°C° 0,5 mm 1 m/s 618 mmHg 98%
    22:00 -4°C° 0,5 mm 1 m/s 618 mmHg 98%
    23:00 -4°C° 0,5 mm 1 m/s 618 mmHg 98%

    27 Aprilie, Joi

    Timp Temperatura Precipitaţii Vânt Presiune Umiditate
    00:00 -4°C° 0,5 mm 1 m/s 617 mmHg 98%
    01:00 -4°C° 0,5 mm 1 m/s 617 mmHg 98%
    02:00 -4°C° 0,9 mm 1 m/s 617 mmHg 98%
    03:00 -4°C° 0,9 mm 1 m/s 617 mmHg 98%
    04:00 -4°C° 0,9 mm 1 m/s 617 mmHg 98%
    05:00 -4°C° 1 mm 1 m/s 617 mmHg 98%
    06:00 -4°C° 1 mm 1 m/s 617 mmHg 98%
    07:00 -4°C° 1 mm 1 m/s 618 mmHg 98%
    08:00 -6°C° 1 mm 2 m/s 618 mmHg 98%
    09:00 -5°C° 1 mm 2 m/s 618 mmHg 98%
    10:00 -5°C° 1 mm 2 m/s 618 mmHg 98%
    11:00 -5°C° 1 mm 2 m/s 619 mmHg 98%
    12:00 -5°C° 1 mm 2 m/s 619 mmHg 98%
    13:00 -4°C° 1 mm 2 m/s 619 mmHg 98%
    14:00 -4°C° 1,1 mm 2 m/s 619 mmHg 98%
    15:00 -5°C° 1,1 mm 2 m/s 619 mmHg 98%
    16:00 -5°C° 1,1 mm 2 m/s 619 mmHg 98%
    17:00 -5°C° 0,8 mm 2 m/s 619 mmHg 98%
    18:00 -6°C° 0,8 mm 2 m/s 619 mmHg 98%
    19:00 -6°C° 0,8 mm 2 m/s 620 mmHg 98%
    20:00 -6°C° 0,6 mm 2 m/s 620 mmHg 98%
    21:00 -6°C° 0,6 mm 2 m/s 620 mmHg 98%
    22:00 -6°C° 0,6 mm 1 m/s 620 mmHg 98%
    23:00 -6°C° 0,5 mm 1 m/s 620 mmHg 98%

    28 Aprilie, Vineri

    Timp Temperatura Precipitaţii Vânt Presiune Umiditate
    00:00 -6°C° 0,5 mm 1 m/s 620 mmHg 98%
    01:00 -6°C° 0,5 mm 1 m/s 620 mmHg 98%
    02:00 -6°C° 0,5 mm 1 m/s 620 mmHg 98%
    03:00 -6°C° 0,5 mm 1 m/s 620 mmHg 98%
    04:00 -7°C° 0,5 mm 1 m/s 620 mmHg 98%
    05:00 -6°C° 0,5 mm 1 m/s 620 mmHg 98%
    06:00 -6°C° 0,5 mm 1 m/s 621 mmHg 98%
    07:00 -6°C° 0,5 mm 1 m/s 621 mmHg 98%
    08:00 -6°C° 0,5 mm 2 m/s 621 mmHg 98%
    09:00 -5°C° 0,5 mm 2 m/s 622 mmHg 98%
    10:00 -5°C° 0,5 mm 2 m/s 622 mmHg 98%
    11:00 -4°C° 0,4 mm 2 m/s 622 mmHg 98%
    12:00 -4°C° 0,4 mm 2 m/s 622 mmHg 97%
    13:00 -4°C° 0,4 mm 2 m/s 622 mmHg 97%
    14:00 -4°C° 0,4 mm 2 m/s 622 mmHg 97%
    15:00 -4°C° 0,4 mm 2 m/s 623 mmHg 97%
    16:00 -4°C° 0,4 mm 2 m/s 623 mmHg 97%
    17:00 -4°C° 0,4 mm 2 m/s 623 mmHg 97%
    18:00 -5°C° 0,4 mm 2 m/s 623 mmHg 97%
    19:00 -6°C° 0,4 mm 2 m/s 623 mmHg 98%
    20:00 -6°C° 0,4 mm 2 m/s 623 mmHg 98%
    21:00 -6°C° 0,4 mm 2 m/s 623 mmHg 97%
    22:00 -7°C° 0,4 mm 2 m/s 623 mmHg 97%
    23:00 -7°C° 0,2 mm 2 m/s 623 mmHg 97%
    Arată mai mult